Simultaneous Nadir Overpasses (SNOs) Predictions

Prediction of SNOs between AQUA and METOP-B Satellite Orbit:

Table of predicted SNOs for the next 14.0 days since TLE Epoch: 3/9/2024
Index Date (AQUA) Time (AQUA) Lat,Lon (AQUA) SZA (AQUA ) Date (METOP-B) Time (METOP-B) Lat,Lon (METOP-B) SZA (METOP-B ) Distance(km) Time Diff (sec)
1 03/09/2024 21:03:43 74.98,-137.83 78.98 03/09/2024 21:02:36 74.89,-140.37 78.98 74.15 67
2 03/09/2024 21:53:14 -75.43, 28.60 100.56 03/09/2024 21:53:06 -75.46, 28.59 100.53 3.43 8
3 03/09/2024 22:42:39 75.50,-163.96 79.51 03/09/2024 22:43:45 75.50,-163.95 79.50 0.27 66
4 03/12/2024 13:15:23 75.15, -21.16 78.11 03/12/2024 13:14:13 75.08, -22.78 78.09 46.96 70
5 03/12/2024 14:04:51 -75.45, 145.68 101.60 03/12/2024 14:04:47 -75.45, 145.65 101.58 1.35 4
6 03/12/2024 14:54:16 75.52, -46.89 78.48 03/12/2024 14:55:26 75.49, -46.90 78.44 3.60 70
7 03/15/2024 05:27:01 75.34, 95.46 77.26 03/15/2024 05:25:49 75.26, 94.80 77.19 20.89 72
8 03/15/2024 06:16:26 -75.48, -97.27 102.62 03/15/2024 06:16:26 -75.49, -97.18 102.61 2.69 0
9 03/15/2024 07:05:51 75.57, 70.13 77.46 03/15/2024 07:07:03 75.62, 70.55 77.50 13.11 72
10 03/17/2024 21:38:37 75.45,-147.69 76.31 03/17/2024 21:37:26 75.43,-147.64 76.29 3.20 71
11 03/17/2024 22:28:00 -75.48, 19.87 103.68 03/17/2024 22:28:07 -75.47, 19.81 103.69 2.47 7
12 03/17/2024 23:17:30 75.82,-173.48 76.68 03/17/2024 23:18:39 75.83,-171.71 76.64 48.13 69
13 03/20/2024 13:50:09 75.42, -30.46 75.22 03/20/2024 13:49:06 75.44, -30.53 75.24 2.61 63
14 03/20/2024 14:39:33 -75.50, 136.97 104.72 03/20/2024 14:39:47 -75.48, 136.93 104.74 2.69 14



Historial Predications of SNOs between AQUA and METOP-B
